This is the latest recevied weather packets stored in our database for station/object IZ6UQU-13. If no packets are shown the sender has not sent any weather packets the latest 10 day(s).
| Time | Temp. | Humidity | Pressure | Rain* | Wind** | Luminosity | Snow |
|---|---|---|---|---|---|---|---|
| 1777467002 | 23.33° C | 34% | 955.8 hPa | 0 mm | - | - | - |
| 1777466702 | 23.33° C | 35% | 955.8 hPa | 0 mm | - | - | - |
| 1777466402 | 23.33° C | 34% | 956 hPa | 0 mm | - | - | - |
| 1777466102 | 23.33° C | 35% | 955.9 hPa | 0 mm | - | - | - |
| 1777465802 | 23.33° C | 32% | 956 hPa | 0 mm | - | - | - |
| 1777465502 | 23.89° C | 34% | 956 hPa | 0 mm | - | - | - |
| 1777465202 | 23.33° C | 33% | 956.1 hPa | 0 mm | - | - | - |
| 1777464907 | 23.33° C | 34% | 956 hPa | 0 mm | - | - | - |
| 1777464602 | 23.33° C | 32% | 956.1 hPa | 0 mm | - | - | - |
| 1777464302 | 23.33° C | 33% | 956.1 hPa | 0 mm | - | - | - |
| 1777464002 | 23.33° C | 31% | 956.1 hPa | 0 mm | - | - | - |
| 1777463702 | 23.33° C | 31% | 956.2 hPa | 0 mm | - | - | - |
| 1777463403 | 22.78° C | 28% | 956.2 hPa | 0 mm | - | - | - |
| 1777463102 | 23.33° C | 32% | 956.3 hPa | 0 mm | - | - | - |
| 1777462803 | 23.89° C | 28% | 956.2 hPa | 0 mm | - | - | - |
| 1777462502 | 24.44° C | 31% | 956.3 hPa | 0 mm | - | - | - |
| 1777462203 | 24.44° C | 31% | 956.3 hPa | 0 mm | - | - | - |
| 1777461902 | 24.44° C | 30% | 956.3 hPa | 0 mm | - | - | - |
| 1777461603 | 23.89° C | 31% | 956.2 hPa | 0 mm | - | - | - |
| 1777461302 | 23.89° C | 30% | 956.3 hPa | 0 mm | - | - | - |
| 1777461002 | 23.89° C | 30% | 956.3 hPa | 0 mm | - | - | - |
| 1777460702 | 23.89° C | 29% | 956.4 hPa | 0 mm | - | - | - |
| 1777460403 | 23.33° C | 30% | 956.4 hPa | 0 mm | - | - | - |
| 1777460102 | 23.33° C | 28% | 956.4 hPa | 0 mm | - | - | - |
| 1777459802 | 23.33° C | 29% | 956.4 hPa | 0 mm | - | - | - |
* Rain latest hour (hover to see other rain measurements)
** Current wind speed in m/s (hover to see current wind gust speed)